Location: Schommer Observatory
(40.5200°N, 74.4500°W)
Time: 16:21:43
(UTC-04:00)

Tiangong 2 - Visible Passes

Search period start: 18 July 2018 00:00
Search period end: 28 July 2018 00:00
Orbit: 386 x 394 km, 42.8° (Epoch: 18 July)

Date Brightness Start Highest point End Pass type
(mag) Time Alt. Az. Time Alt. Az. Time Alt. Az.
18 Jul 1.5 21:57:09 10° WNW 22:00:19 61° N 22:01:59 25° E visible
18 Jul 4.1 23:34:06 10° W 23:34:18 11° W 23:34:18 11° W visible
19 Jul 1.7 20:59:25 10° WNW 21:02:34 54° N 21:05:42 10° E visible
19 Jul 1.5 22:36:21 10° WNW 22:39:00 55° WSW 22:39:00 55° WSW visible
20 Jul 1.1 21:38:38 10° WNW 21:41:49 82° NNE 21:43:43 22° ESE visible
20 Jul 4.1 23:15:50 10° W 23:16:01 11° W 23:16:01 11° W visible
21 Jul 1.8 22:17:53 10° W 22:20:44 39° SW 22:20:44 39° SW visible
22 Jul 1.2 21:20:05 10° WNW 21:23:15 64° SSW 21:25:28 18° ESE visible
23 Jul 2.7 21:59:36 10° W 22:02:10 22° SSW 22:02:33 22° SSW visible
24 Jul 2.0 21:01:37 10° W 21:04:36 37° SSW 21:07:22 11° SE visible
25 Jul 3.6 21:41:59 10° WSW 21:43:21 12° SW 21:44:32 10° SSW visible
26 Jul 3.1 20:43:21 10° W 20:45:49 21° SSW 20:48:17 10° SSE visible
